Regional Weather Roundup
Issued by NWS Goodland, KS

Home | Current Version | Previous Version | Graphics & Text | Print | Product List | Glossary On
Versions: 1 2 3 4 5 6 7 8 9 10 11 12 13 14 15 16 17 18 19 20 21 22 23 24 25 26 27 28 29 30 31 32 33 34 35 36 37 38 39 40 41 42 43 44 45 46 47 48 49 50
000
ASUS43 KGLD 270108
RWRGLD

GOODLAND FORECAST AREA HOURLY WEATHER ROUNDUP
NATIONAL WEATHER SERVICE GOODLAND KS
700 PM MDT THU MAR 26 2015

...OFFICIAL OBSERVATIONS...

CITY           SKY/WX    TMP DP  RH WIND       PRES   REMARKS
GOODLAND KS    CLOUDY    52  30  43 N12       30.12R
HILL CITY KS   MOCLDY    56  26  31 N14       30.05R
IMPERIAL NEB     N/A     52  29  41 N20       30.10R
MCCOOK NEB     CLOUDY    55  27  34 N17       30.08R
AKRON CO       CLOUDY    49  28  44 N7        30.12R
BURLINGTON CO  CLOUDY    53  26  35 NE10      30.13R
LIMON CO       PTCLDY    49  25  39 N12       30.15R
$$

...UNOFFICIAL OBSERVATIONS...

CITY           SKY/WX    TMP DP  RH WIND       PRES   REMARKS
COLBY KS       CLOUDY    54  34  47 NW12      30.10S
GOVE KS          N/A     57  32  39 MISG        N/A
LENORA KS        N/A     53  32  45 MISG        N/A
NORTON KS      PTCLDY    52  27  37 N14       30.07R
SHARON SPRINGS   N/A     55  29  36 N12         N/A
TRIBUNE KS     PTCLDY    57  34  41 N13       30.13R
KIT CARSON CO    N/A     54  28  36 MISG        N/A
YUMA CO          N/A     52  28  39 N15         N/A
$$


USA.gov is the U.S. government's official web portal to all federal, state and local government web resources and services.